This demonstration page uses our WeatherBlox Daily Observations layout. Learn more.

Left ArrowRight Arrow

39.92423, -83.80882

Hourly Observations for June 13, 2015

Temp ( °F °C ) Dew Point ( °F °C ) Humidity (%) Winds ( mph kmh ) Pressure ( in mb ) Visibility ( mi km ) Precip ( " mm )
12:56 am 00:56 Clear 70 21.1 68 20 93 93 WSW 3 6 29.97 1015 9 14.48406 0 0
1:56 am 01:56 Clear 69 20.5 68 20 97 97 Calm 29.98 1015 9 14.48406 0 0
2:56 am 02:56 Partly Cloudy 69 20.5 68 20 97 97 SW 5 7 29.97 1015 8 12.87472 0 0
3:56 am 03:56 Clear 69 20.5 69 20.5 100 100 SW 6 9 29.98 1015 8 12.87472 0 0
4:56 am 04:56 Clear 69 20.5 69 20.5 100 100 SSW 5 7 29.99 1016 7 11.26538 0 0
5:56 am 05:56 Clear with Mist and Fog 69 20.5 69 20.5 100 100 SSW 6 9 30 1016 6 9.65604 0 0
6:56 am 06:56 Sunny with Mist and Fog 70 21.1 70 21.1 100 100 WSW 6 9 30.01 1016 3 4.82802 0 0
7:56 am 07:56 Partly Cloudy with Mist and Fog 72 22.2 72 22.2 100 100 SW 6 9 30.03 1017 4 6.43736 0 0
8:56 am 08:56 Sunny 78 25.5 74 23.3 88 88 WSW 10 17 30.04 1017 7 11.26538 0 0
9:56 am 09:56 Sunny 80 26.6 74 23.3 82 82 W 14 22 30.05 1018 7 11.26538 0 0
10:56 am 10:56 Sunny 83 28.3 74 23.3 74 74 W 13 20 30.05 1018 7 11.26538 0 0
11:56 am 11:56 Partly Cloudy 85 29.4 74 23.3 70 70 WSW 9 15 30.06 1018 8 12.87472 0 0
12:56 pm 12:56 Mostly Cloudy 86 30 74 23.3 67 67 WSW 10 17 30.05 1018 8 12.87472 0 0
1:56 pm 13:56 Mostly Sunny 89 31.6 73 22.7 59 59 WSW 13 20 30.02 1017 8 12.87472 0 0
2:56 pm 14:56 Mostly Cloudy 90 32.2 72 22.2 56 56 SW 15 24 29.99 1016 8 12.87472 0 0
3:56 pm 15:56 Sunny with Nearby Thunderstorms 91 32.7 71 21.6 52 52 SW 15 24 29.99 1016 8 12.87472 0 0
4:10 pm 16:10 Mostly Sunny 90 32 70 21 52 52 SW 13 20 29.97 1015 8 12.87472 0 0
4:56 pm 16:56 Mostly Sunny 91 32.7 73 22.7 56 56 SW 10 17 29.99 1016 8 12.87472 0 0
5:56 pm 17:56 Mostly Sunny 88 31.1 72 22.2 59 59 SSW 9 15 29.99 1016 8 12.87472 0 0
6:56 pm 18:56 Sunny with Nearby Thunderstorms 88 31.1 71 21.6 57 57 SSW 9 15 29.98 1015 8 12.87472 0 0
7:43 pm 19:43 Mostly Cloudy 81 27 72 22 74 74 ENE 18 30 29.97 1015 8 12.87472 0 0
7:56 pm 19:56 Mostly Cloudy with Haze 75 23.8 69 20.5 82 82 ENE 10 17 30.02 1017 5 8.0467 0 0
8:56 pm 20:56 Partly Cloudy 73 22.7 69 20.5 87 87 E 8 13 30.03 1017 8 12.87472 0 0
9:56 pm 21:56 Partly Cloudy 73 22.7 67 19.4 82 82 SE 9 15 30.03 1017 10 16.0934 0 0
10:56 pm 22:56 Mostly Cloudy 75 23.8 70 21.1 85 85 S 8 13 30.06 1018 9 14.48406 0 0
11:04 pm 23:04 Mostly Cloudy with Heavy Thunderstorms 73 23 72 22 94 94 S 13 20 30.06 1018 2.5 4.02335 0.04 1.016
11:11 pm 23:11 Mostly Cloudy with Light Thunderstorms 73 23 72 22 94 94 SSE 12 19 30.06 1018 2 3.21868 0.05 1.27
11:14 pm 23:14 Mostly Cloudy with Light Rain 73 23 72 22 94 94 SSE 10 17 30.06 1018 4 6.43736 0.05 1.27
11:56 pm 23:56 Mostly Clear 73 22.7 71 21.6 94 94 SSE 9 15 30.05 1018 8 12.87472 0.05 1.27

Powered by AerisWeather